RH
68 70 71 75 76 79 79 86 83 89 87 87 89 88 87 83 89 91 94 93 92 94 93 91 87 88 88 80 91 91 87 82 78 80 78 69 77 76 70 76 82 84 84
64 66 69 70 76 81 80 88 84 82 83 82 86 87 84 82 80 89 90 85 92 92 93 93 90 86 92 90 81 87 82 90 76 71 75 78 80 80 80 83 76 70 76
64 67 70 73 78 77 77 79 90 81 80 80 83 86 85 83 83 80 86 89 91 91 91 93 93 92 92 95 90 90 94 95 93 89 82 85 80 81 76 76 80 79 70
64 68 72 74 77 77 72 76 87 84 82 80 80 82 84 83 80 79 81 88 94 87 92 90 92 90 89 86 86 91 95 96 96 96 96 96 88 78 85 81 76 79 78
67 71 72 72 75 77 78 76 76 86 84 80 83 85 85 82 78 81 81 84 91 89 88 86 91 88 86 87 89 94 97 96 97 97 95 90 84 85 81 79 83 94 93
68 72 72 75 77 80 82 82 82 85 84 88 86 85 88 82 84 86 82 84 88 88 94 96 93 90 91 88 86 89 92 94 95 97 96 95 91 84 94 96 94 97 97
71 72 73 75 79 83 84 87 88 86 86 94 87 87 90 87 89 88 87 91 93 95 96 92 90 81 92 93 93 91 90 90 88 93 94 92 91 92 95 94 97 97 98
73 74 76 76 79 81 84 88 89 87 89 91 92 90 90 91 91 92 89 91 96 95 93 94 88 88 93 94 96 97 95 93 94 89 86 81 90 89 95 94 94 96 97
73 75 76 78 80 82 85 86 86 90 88 91 94 94 94 94 96 93 94 94 96 96 95 92 92 92 95 93 94 96 96 97 96 95 95 93 98 96 96 99 99 99 98
71 71 73 76 79 83 83 83 84 86 89 86 95 95 95 94 99 95 92 95 98 98 98 97 95 94 96 96 94 96 94 92 96 95 95 94 94 92 91 98 97 98 98
62 66 70 75 78 78 81 81 86 93 91 94 95 96 96 95 99 98 95 97 98 98 96 97 94 96 96 98 92 90 93 94 94 96 95 90 86 86 84 90 96 97 97
55 61 70 72 75 77 81 84 90 96 96 96 98 99 99 99 100 99 100 98 98 96 89 88 96 97 94 94 98 97 100 95 98 97 95 90 90 90 89 77 84 91 96
55 58 60 70 73 74 84 93 96 97 94 96 99 99 100 99 99 100 100 99 95 90 96 95 98 100 99 100 98 100 100 99 98 95 94 93 93 92 88 73 69 68 65
57 59 60 68 74 72 79 87 95 97 97 98 99 98 99 99 99 98 97 95 98 97 99 99 97 97 95 97 99 100 99 99 98 96 94 94 95 92 75 77 71 68 68
59 57 59 64 74 84 97 98 96 95 97 99 99 99 99 99 98 99 99 99 99 100 98 95 98 97 97 97 98 98 99 98 98 97 95 96 96 90 77 79 74 75 69
92 92 97 99 99 99 99 99 100 100 100 100 100 100 100 100 100 100 100 100 100 100 96 98 99 98 98 97 97 98 98 95 98 97 96 97 96 83 80 71 76 75 69
96 99 99 99 99 99 99 99 99 100 100 100 100 100 100 100 100 100 100 100 100 99 99 99 99 98 98 97 97 97 96 97 96 97 97 94 84 77 69 69 68 69 64
94 100 99 99 98 98 98 98 99 98 99 100 99 100 100 100 100 100 100 100 98 98 97 98 98 98 98 98 98 98 98 98 98 96 80 69 66 63 70 64 65 66 72
99 98 96 100 99 98 97 97 95 98 98 99 98 98 98 100 100 100 98 89 98 98 98 97 97 97 97 96 93 93 91 84 73 70 68 65 72 73 66 65 65 73 74
99 98 99 98 99 98 98 92 91 92 96 98 97 99 95 95 95 93 95 95 94 96 96 94 94 92 89 85 84 84 80 75 72 73 73 72 75 71 60 63 67 64 68
99 98 98 97 95 97 97 96 96 93 92 92 92 93 95 85 90 89 95 94 91 92 94 89 86 83 86 84 83 82 76 74 71 68 74 81 70 61 69 69 65 68 71
97 96 96 98 98 94 94 92 91 87 84 88 94 95 97 96 90 90 93 91 90 88 81 75 77 75 77 79 83 77 73 67 66 73 72 67 66 70 71 69 68 67 63
96 96 96 97 95 92 95 93 90 85 86 92 95 96 96 94 95 91 88 90 92 89 84 82 78 81 85 84 80 71 60 59 64 72 70 69 67 66 70 68 68 61 60
87 92 95 96 97 97 96 97 96 97 93 94 91 93 88 88 89 88 89 91 93 90 82 78 64 62 69 76 69 59 56 64 71 68 64 64 62 69 66 68 67 56 62
79 88 91 94 93 94 97 97 96 96 95 89 87 88 87 83 86 90 93 93 92 87 75 70 60 55 55 51 50 51 67 80 68 69 58 51 49 52 62 72 65 60 61
95 92 95 94 95 94 93 93 95 92 90 90 94 90 81 90 89 91 96 95 89 80 71 69 66 59 50 48 49 62 82 77 60 68 55 53 50 54 68 72 69 60 55
Wind_Speed
19 18 17 15 14 12 12 11 12 9 10 10 12 11 11 11 9 9 7 7 7 6 4 6 6 5 3 3 2 1 2 3 3 1 2 1 2 2 3 3 4 5 4
20 19 19 16 15 15 14 12 12 12 11 12 11 11 11 11 10 11 10 8 8 7 7 6 7 4 5 4 3 4 3 4 3 3 2 1 2 1 3 3 3 3 4
19 19 18 17 16 17 17 15 13 13 12 12 12 13 12 12 12 12 11 9 9 8 8 7 7 6 5 4 5 5 3 3 3 2 1 1 2 1 2 2 2 3 2
19 20 20 19 19 18 17 16 14 15 13 14 14 14 13 13 13 13 11 9 8 9 8 9 8 8 8 7 6 6 4 4 3 2 2 2 2 1 1 1 3 2 3
20 20 21 20 18 17 17 16 15 15 14 14 13 13 13 13 11 13 12 12 10 10 10 8 7 8 12 9 5 6 6 5 4 3 3 2 2 1 2 1 3 2 3
21 22 19 19 18 18 16 15 14 14 14 13 15 15 15 11 14 17 15 12 11 11 9 6 7 10 11 13 13 11 10 6 5 4 3 3 3 2 2 4 3 1 3
21 20 20 19 18 18 15 15 16 16 14 14 15 15 16 15 17 19 18 10 10 9 9 10 8 7 9 6 9 12 12 12 9 7 6 5 4 5 4 3 4 4 5
20 19 18 19 19 18 17 18 16 15 17 14 15 15 13 12 17 17 19 10 8 9 10 10 10 9 8 8 7 6 7 6 7 6 6 5 5 4 6 5 4 3 2
20 20 20 21 20 19 20 20 16 14 14 14 13 14 15 12 15 17 15 10 8 9 9 9 10 9 10 12 9 8 6 5 4 7 8 7 5 7 6 3 3 2 3
20 22 22 21 20 21 21 20 17 14 16 11 12 14 15 13 15 19 17 9 9 7 6 7 11 9 11 14 9 8 6 6 5 4 3 2 4 3 4 6 4 4 3
20 19 17 18 20 19 17 15 16 16 13 13 13 11 11 13 11 19 20 12 10 8 6 5 4 9 11 15 10 7 7 5 4 4 3 1 1 3 3 3 5 4 3
17 16 17 18 16 14 17 15 15 14 14 13 13 9 8 7 11 12 11 8 11 6 7 4 4 9 11 11 9 7 7 6 3 4 3 2 2 2 2 3 4 5 5
15 17 18 17 17 17 17 17 12 13 12 11 10 10 8 8 9 21 20 13 10 6 4 7 10 9 6 5 9 11 10 4 4 3 4 3 3 3 2 2 3 2 3
13 17 15 16 17 15 10 10 11 11 12 11 11 12 9 7 7 7 10 10 8 5 9 5 5 5 5 7 5 5 4 4 5 3 3 3 1 1 1 1 1 2 1
10 10 11 11 12 9 5 6 11 6 10 11 8 7 8 6 4 11 12 9 8 8 9 3 3 1 2 2 3 4 4 4 4 3 3 2 1 1 1 1 1 1 1
5 2 6 4 8 9 8 9 15 21 12 14 7 5 7 9 15 11 15 15 15 18 5 4 4 4 4 4 4 4 4 5 4 4 3 3 3 3 2 0 1 2 2
9 9 6 9 10 11 12 10 11 13 4 3 17 28 8 18 14 15 14 15 16 13 4 5 5 5 5 4 4 4 4 4 4 4 4 4 4 2 2 1 1 1 3
7 16 5 3 10 14 15 12 11 9 4 7 14 10 10 17 17 15 15 13 7 1 2 4 5 5 5 5 5 4 3 4 3 4 4 4 4 3 2 2 1 2 2
15 7 14 6 10 8 11 9 8 14 13 7 5 10 11 13 17 17 12 8 8 5 5 4 4 5 4 5 5 5 5 5 4 4 3 3 3 3 2 2 2 4 3
9 15 8 12 10 7 13 9 8 9 8 6 6 7 7 8 8 7 2 4 5 5 5 5 4 5 5 6 6 5 5 5 4 3 2 3 3 3 3 2 1 2 2
4 5 9 8 9 10 12 10 8 9 8 7 8 8 11 12 10 9 5 5 5 5 5 5 5 6 5 6 5 5 5 4 4 3 4 4 4 3 2 2 2 2 3
6 5 7 7 7 7 6 7 9 9 9 8 5 4 6 4 7 7 6 5 5 5 6 8 7 7 7 7 6 6 5 5 5 5 5 5 4 3 3 1 1 1 2
5 6 7 5 6 8 6 5 5 5 6 6 7 6 5 4 4 5 6 6 5 5 5 5 7 5 5 5 5 6 7 6 6 5 6 6 4 4 3 1 1 1 2
6 7 5 4 4 5 5 5 4 5 7 7 7 7 9 8 8 7 6 6 5 5 6 6 6 9 7 6 5 5 4 4 5 6 8 6 5 4 3 2 2 3 3
5 5 5 5 5 4 4 5 7 7 7 5 5 6 7 8 7 7 6 5 6 6 7 6 6 7 10 12 9 8 7 10 7 8 5 6 5 5 3 2 2 2 1
4 4 4 4 5 5 4 4 3 4 4 4 3 4 6 6 5 6 6 6 6 5 7 5 7 9 10 8 10 11 9 10 8 8 6 5 5 4 3 3 4 2 3
Wind_Direction
192 193 195 197 198 195 198 193 195 177 181 182 185 186 186 189 186 190 194 185 191 191 182 191 202 168 179 187 179 110 151 150 175 299 234 287 306 279 322 329 280 260 261
192 192 195 195 194 196 204 195 192 191 184 186 185 188 190 194 191 196 196 196 191 193 198 195 216 173 202 197 191 200 188 172 149 210 206 329 242 276 265 284 288 264 256
192 191 195 195 194 200 205 200 192 194 187 189 188 193 192 194 195 202 198 193 194 198 190 194 207 188 203 200 202 200 196 168 163 158 167 125 283 313 324 340 314 311 289
191 192 193 195 198 201 205 203 191 195 188 189 194 196 195 197 202 201 195 192 188 199 199 200 191 189 195 205 206 206 180 167 175 166 165 209 197 286 286 294 314 248 295
191 194 199 197 199 201 203 201 200 194 193 190 185 192 195 202 204 197 195 196 190 198 205 206 204 201 203 194 184 204 173 175 175 181 185 196 216 247 247 318 267 276 275
192 201 194 197 197 202 203 200 198 199 196 186 191 191 194 203 199 194 195 196 194 199 194 184 208 211 217 208 207 189 182 178 186 168 188 193 252 213 190 241 246 270 299
196 195 196 195 199 201 199 198 200 199 194 195 196 191 198 202 193 195 193 194 191 191 180 202 210 211 208 199 210 200 203 188 171 173 191 198 230 198 180 231 220 208 221
195 198 196 195 199 196 196 204 202 197 197 197 198 196 196 204 196 188 188 191 186 182 191 206 207 211 198 178 167 185 205 210 202 192 209 219 217 183 198 199 210 217 277
193 196 197 197 198 195 199 202 200 199 201 201 191 188 198 207 186 180 174 186 182 189 194 194 204 203 180 176 169 190 207 226 210 239 245 245 276 257 201 164 235 170 264
196 201 199 197 198 198 201 199 197 197 203 193 192 194 198 201 179 182 172 170 187 187 187 213 200 191 174 172 178 180 193 234 197 223 248 272 249 267 208 197 182 214 191
201 203 199 197 201 204 201 195 194 195 191 192 193 192 193 194 185 175 173 171 171 177 195 196 184 177 179 186 185 173 200 160 197 196 175 239 305 286 275 227 197 179 191
202 196 197 198 197 194 192 197 194 187 188 184 183 183 187 167 143 156 167 158 142 164 185 173 170 185 192 192 184 200 154 145 160 163 171 210 233 253 256 260 221 219 220
198 200 197 194 195 193 190 184 186 179 179 188 180 186 170 154 159 162 170 152 160 148 154 174 160 180 187 172 175 161 163 170 155 173 203 203 198 208 266 293 290 292 285
221 207 201 189 189 188 180 177 175 191 182 178 185 184 177 176 168 174 159 128 122 119 106 102 133 130 119 122 111 138 154 159 169 180 193 198 216 226 207 158 273 334 348
219 219 215 196 174 144 93 186 177 184 174 172 181 170 147 125 163 186 140 147 160 141 111 109 112 154 190 150 123 137 159 159 171 188 185 179 220 263 224 153 223 305 224
333 181 123 109 121 125 105 83 65 111 108 105 93 246 105 144 149 174 154 143 134 141 120 139 174 192 199 195 179 158 172 189 198 183 187 176 203 205 237 236 185 208 255
44 12 97 120 127 123 116 120 107 53 36 83 166 154 151 147 190 161 144 138 145 143 152 172 168 184 196 191 181 173 178 194 169 179 188 180 182 171 192 234 250 268 292
166 145 116 4 146 133 125 136 127 122 132 85 329 36 124 147 132 119 117 105 138 61 114 163 171 179 175 192 192 154 143 138 142 173 163 163 169 159 180 211 228 254 276
13 271 146 153 294 162 132 159 170 130 163 156 154 62 70 96 123 141 159 151 163 165 169 173 168 168 174 169 138 126 142 141 148 149 161 154 165 151 177 221 265 265 253
133 190 140 141 193 95 78 101 103 114 129 144 125 132 155 120 137 159 129 150 154 165 179 156 166 160 158 144 131 144 133 134 152 150 152 173 187 164 182 215 234 282 295
97 121 115 125 102 116 126 134 131 131 145 154 158 165 158 155 158 162 158 177 163 165 158 155 167 160 147 128 133 143 141 161 170 172 197 184 173 166 173 201 235 262 274
86 68 71 82 88 95 98 119 135 145 152 149 135 113 142 129 147 153 160 172 169 163 151 164 166 156 157 156 154 151 165 177 178 173 174 161 161 146 163 158 275 296 309
78 83 82 75 87 98 92 95 113 148 156 150 142 156 152 150 155 162 164 171 166 172 160 153 138 155 155 161 156 166 162 190 196 170 157 155 170 170 160 166 272 300 310
42 61 64 62 109 129 128 136 127 124 135 156 167 170 169 177 185 181 172 164 162 158 148 150 166 163 163 157 165 173 172 168 160 174 156 156 172 166 164 191 223 243 284
92 90 98 105 108 105 142 152 152 160 166 161 144 163 181 180 167 159 160 166 157 157 168 163 162 170 171 162 166 168 172 166 169 162 145 142 163 177 187 197 220 261 272
44 75 101 99 106 95 74 85 129 141 107 130 161 191 190 172 159 158 153 162 161 160 163 161 159 168 178 169 170 167 169 181 175 169 143 143 161 182 181 217 240 227 263